Weather History for Glasgow, MT

Change the Weather History Date:

Wednesday, August 21, 2013

  Actual Average Record
Temperature  
Mean Temperature 71 °F 69 °F  
Max Temperature 83 °F 84 °F 102 °F (1969)
Min Temperature 58 °F 55 °F 34 °F (1904)
Degree Days  
Heating Degree Days 0 1  
Month to date heating degree days 5 13  
Since 1 June heating degree days 99 136  
Since 1 July heating degree days 15 31  
Cooling Degree Days 6 6  
Month to date cooling degree days 123 153  
Year to date cooling degree days 353 452  
Since 1 June cooling degree days 344 435  
Growing Degree Days 20 (Base 50)    
Moisture  
Dew Point 44 °F    
Average Humidity 51    
Maximum Humidity 78    
Minimum Humidity 24    
Precipitation  
Precipitation 0.00 in 0.03 in 2.04 in (1918)
Month to date precipitation 0.15 0.88  
Year to date precipitation 12.56 8.81  
Snow  
Snow 0.00 in 0.00 in 0.00 in (2002)
Month to date snowfall 0.0 0.0  
Since 1 June snowfall 0.0 0.0  
Since 1 July snowfall 0.0 0.0  
Snow Depth 0.00 in    
Sea Level Pressure  
Sea Level Pressure 30.04 in    
Wind  
Wind Speed 13 mph (ENE)    
Max Wind Speed 26 mph    
Max Gust Speed 32 mph    
Visibility 10 miles    
Events      
T = Trace of Precipitation, MM = Missing Value Source: NWS Daily Summary

Daily Weather History Graph

Daily Weather History Graph

Search for Another Location

Airport:

Trip Planner

Search our weather history database for the weather conditions in past years. The results will help you decide how hot, cold, wet, or windy it might be!

Date:

Astronomy

Aug. 21, 2013 Rise Set
Actual Time 6:09 AM MDT 8:08 PM MDT
Civil Twilight 5:35 AM MDT 8:42 PM MDT
Nautical Twilight 4:54 AM MDT 9:23 PM MDT
Astronomical Twilight 4:08 AM MDT 10:09 PM MDT
Moon 8:08 PM MDT (8/21) 7:00 AM MDT (8/21)
Length of Visible Light 15h 06m
Length of Day
13h 59m
Full, 99% of the Moon is Illuminated
Aug 21
Full
Aug 28
Last Quarter
Sep 5
New
Sep 12
First Quarter
Sep 19
Full

Hourly Weather History & Observations

Time (MDT) Temp. Dew Point Humidity Pressure Visibility Wind Dir Wind Speed Gust Speed Precip Events Conditions
12:53 AM 66.0 °F 53.1 °F 63% 29.86 in 10.0 mi East 10.4 mph - N/A   Clear
1:53 AM 62.1 °F 53.1 °F 72% 29.88 in 10.0 mi NE 8.1 mph - N/A   Clear
2:53 AM 61.0 °F 53.1 °F 75% 29.90 in 10.0 mi NE 11.5 mph - N/A   Clear
3:53 AM 61.0 °F 53.1 °F 75% 29.91 in 10.0 mi ENE 8.1 mph - N/A   Clear
4:53 AM 60.1 °F 51.1 °F 72% 29.95 in 10.0 mi NE 18.4 mph 26.5 mph N/A   Clear
5:53 AM 57.9 °F 45.0 °F 62% 29.98 in 10.0 mi ENE 17.3 mph 27.6 mph N/A   Clear
6:53 AM 59.0 °F 42.1 °F 53% 30.01 in 10.0 mi NE 23.0 mph 31.1 mph N/A   Clear
7:53 AM 61.0 °F 41.0 °F 48% 30.05 in 10.0 mi ENE 24.2 mph 29.9 mph N/A   Clear
8:53 AM 66.0 °F 39.9 °F 38% 30.07 in 10.0 mi ENE 23.0 mph 29.9 mph N/A   Clear
9:53 AM 70.0 °F 39.9 °F 33% 30.09 in 10.0 mi East 17.3 mph 26.5 mph N/A   Clear
10:53 AM 73.0 °F 41.0 °F 31% 30.09 in 10.0 mi East 18.4 mph 21.9 mph N/A   Clear
11:53 AM 75.0 °F 42.1 °F 31% 30.10 in 10.0 mi East 15.0 mph 21.9 mph N/A   Clear
12:53 PM 77.0 °F 43.0 °F 30% 30.09 in 10.0 mi East 9.2 mph 20.7 mph N/A   Clear
1:53 PM 80.1 °F 44.1 °F 28% 30.09 in 10.0 mi NE 11.5 mph 17.3 mph N/A   Clear
2:53 PM 80.1 °F 44.1 °F 28% 30.09 in 10.0 mi ENE 13.8 mph - N/A   Clear
3:53 PM 82.0 °F 43.0 °F 25% 30.07 in 10.0 mi East 10.4 mph 18.4 mph N/A   Clear
4:53 PM 82.0 °F 43.0 °F 25% 30.06 in 10.0 mi ENE 6.9 mph - N/A   Clear
5:53 PM 81.0 °F 43.0 °F 26% 30.06 in 10.0 mi East 6.9 mph - N/A   Clear
6:53 PM 79.0 °F 43.0 °F 28% 30.06 in 10.0 mi East 10.4 mph - N/A   Clear
7:53 PM 73.9 °F 44.1 °F 34% 30.08 in 10.0 mi ESE 9.2 mph - N/A   Clear
8:53 PM 66.9 °F 45.0 °F 45% 30.10 in 10.0 mi East 9.2 mph - N/A   Clear
9:53 PM 64.9 °F 45.0 °F 48% 30.11 in 10.0 mi East 11.5 mph - N/A   Clear
10:53 PM 64.0 °F 41.0 °F 43% 30.12 in 10.0 mi East 11.5 mph - N/A   Clear
11:53 PM 63.0 °F 39.0 °F 41% 30.12 in 10.0 mi East 13.8 mph - N/A   Clear